Regional Weather Roundup
Issued by NWS

Home | Current Version | Previous Version | Text Only | Print | Product List | Glossary Off
Versions: 1 2 3 4 5 6 7 8 9 10 11 12 13 14 15 16 17 18 19 20 21 22 23 24 25 26 27 28 29 30 31 32 33 34 35 36 37 38 39 40 41 42 43 44 45 46 47 48 49 50

000
ASUS43 KLMK 201610
RWRKY
KENTUCKY REGIONAL WEATHER ROUNDUP
NATIONAL WEATHER SERVICE LOUISVILLE KY
1200 PM EDT FRI OCT 20 2017

NOTE "FAIR" INDICATES FEW OR NO CLOUDS BELOW 12,000 FEET
WITH NO SIGNIFICANT WEATHER AND/OR OBSTRUCTIONS TO VISIBILITY.

KYZ001>023-026-027-061>063-070>075-201700-
WESTERN AND SOUTH CENTRAL KENTUCKY

CITY           SKY/WX    TMP DP  RH WIND       PRES   REMARKS
PADUCAH        CLOUDY    69  52  54 SW6       30.26F
HENDERSON      SUNNY     71  54  54 S5        30.28F
OWENSBORO      NOT AVBL
HOPKINSVILLE   SUNNY     68  52  56 CALM      30.29F
BOWLING GREEN  SUNNY     68  53  58 CALM      30.30F
GLASGOW        SUNNY     71  49  45 CALM      30.29F
$$

KYZ024-025-028>034-038-045-046-053-201700-
NORTH CENTRAL KENTUCKY

CITY           SKY/WX    TMP DP  RH WIND       PRES   REMARKS
LOUISVILLE/SDF MOSUNNY   68  52  56 CALM      30.29F
LOUISVILLE/LOU SUNNY     67  52  58 CALM      30.30F
FORT KNOX      SUNNY     69  52  54 CALM      30.28F
$$

KYZ035>037-039>044-047>052-055>060-089>105-201700-
NORTHEAST KENTUCKY

CITY           SKY/WX    TMP DP  RH WIND       PRES   REMARKS
LEXINGTON      SUNNY     70  52  52 CALM      30.32F
COVINGTON      MOSUNNY   69  56  62 S5        30.31F
FRANKFORT      SUNNY     70  50  49 CALM      30.30F
$$

KYZ054-064>069-076>088-106>120-201700-
SOUTHEAST KENTUCKY

CITY           SKY/WX    TMP DP  RH WIND       PRES   REMARKS
JACKSON        SUNNY     65  51  60 CALM      30.34F
LONDON         SUNNY     65  50  58 S3        30.33F
SOMERSET       SUNNY     63  50  63 CALM      30.33F
MIDDLESBORO    SUNNY     54  50  87 CALM      30.35F
MONTICELLO     SUNNY     66  55  67 VRB7      30.33F
$$





USA.gov is the U.S. government's official web portal to all federal, state and local government web resources and services.